DL1MX-13 Weather Reports


time (UTC)temp
F
wind
direction
speed
knots
gust
knots
rain 1hr
in
rain 24hr
in
rain mn
in
humidity
%
barometer
mb
20260505164301 54 227 5.2 0.0 0.00 0.00 0.00 88 1008.2
20260505164202 54 220 3.5 0.0 0.00 0.00 0.00 88 1008.2
20260505164101 54 220 3.5 0.0 0.00 0.00 0.00 88 1008.2
20260505164002 54 222 5.2 0.0 0.00 0.00 0.00 87 1008.2
20260505163901 54 222 5.2 0.0 0.00 0.00 0.00 87 1008.2
20260505163802 54 212 5.2 0.0 0.00 0.00 0.00 87 1008.3
20260505163702 54 212 5.2 0.0 0.00 0.00 0.00 87 1008.3
20260505163601 54 212 5.2 0.0 0.00 0.00 0.00 87 1008.3
20260505163502 54 212 5.2 0.0 0.00 0.00 0.00 87 1008.3
20260505163402 54 212 5.2 0.0 0.00 0.00 0.00 87 1008.3
20260505163302 54 212 5.2 0.0 0.00 0.00 0.00 87 1008.3
20260505163201 54 212 5.2 0.0 0.00 0.00 0.00 87 1008.3
20260505163102 54 217 5.2 0.0 0.00 0.00 0.00 88 1008.3
20260505163001 54 217 5.2 0.0 0.00 0.00 0.00 88 1008.3
20260505162902 54 217 5.2 0.0 0.00 0.00 0.00 88 1008.4
20260505162802 54 212 4.3 0.0 0.00 0.00 0.00 88 1008.4
20260505162702 54 212 4.3 0.0 0.00 0.00 0.00 88 1008.4
20260505162602 54 212 4.3 0.0 0.00 0.00 0.00 88 1008.4
20260505162502 54 220 5.2 0.0 0.00 0.00 0.00 87 1008.4
20260505162402 54 220 5.2 0.0 0.00 0.00 0.00 87 1008.4
20260505162305 54 220 5.2 0.0 0.00 0.00 0.00 87 1008.4
20260505162202 55 222 7.0 0.0 0.00 0.00 0.00 87 1008.4
20260505162102 55 222 7.0 0.0 0.00 0.00 0.00 87 1008.4
20260505162002 55 222 7.0 0.0 0.00 0.00 0.00 87 1008.5
20260505161902 55 232 5.2 0.0 0.00 0.00 0.00 87 1008.4
20260505161802 55 232 5.2 0.0 0.00 0.00 0.00 87 1008.4
20260505161702 55 232 6.1 0.0 0.00 0.00 0.00 87 1008.4
20260505161602 55 232 6.1 0.0 0.00 0.00 0.00 87 1008.4
20260505161502 55 232 6.1 0.0 0.00 0.00 0.00 87 1008.5
20260505161402 55 232 6.1 0.0 0.00 0.00 0.00 87 1008.4
20260505161301 55 232 6.1 0.0 0.00 0.00 0.00 87 1008.4
20260505161202 55 215 4.3 0.0 0.00 0.00 0.00 87 1008.5
20260505161101 55 215 4.3 0.0 0.00 0.00 0.00 87 1008.4
20260505161005 55 215 4.3 0.0 0.00 0.00 0.00 87 1008.4
20260505160901 55 212 4.3 0.0 0.00 0.00 0.00 87 1008.4
20260505160802 55 212 4.3 0.0 0.00 0.00 0.00 87 1008.4
20260505160701 55 215 3.5 0.0 0.00 0.00 0.00 87 1008.4
20260505160602 55 215 3.5 0.0 0.00 0.00 0.00 87 1008.4
20260505160502 55 215 3.5 0.0 0.00 0.00 0.00 87 1008.4
20260505160402 55 215 5.2 0.0 0.00 0.00 0.00 88 1008.3
20260505160302 55 215 5.2 0.0 0.00 0.00 0.00 88 1008.4
20260505160202 55 222 3.5 0.0 0.00 0.00 0.00 88 1008.4
20260505153302 55 215 5.2 0.0 0.00 0.00 0.00 89 1008.5
20260505153202 55 217 7.0 0.0 0.00 0.00 0.00 89 1008.5
20260505153102 55 217 7.0 0.0 0.00 0.00 0.00 89 1008.6
20260505153002 55 217 7.0 0.0 0.00 0.00 0.00 89 1008.6
20260505152902 55 207 5.2 0.0 0.00 0.00 0.00 89 1008.6
20260505152801 55 207 5.2 0.0 0.00 0.00 0.00 89 1008.5
20260505152702 55 207 5.2 0.0 0.00 0.00 0.00 89 1008.6
20260505152601 55 222 5.2 0.0 0.00 0.00 0.00 89 1008.6
20260505152502 55 222 5.2 0.0 0.00 0.00 0.00 89 1008.6
20260505152402 55 222 5.2 0.0 0.00 0.00 0.00 89 1008.6
20260505152305 55 225 4.3 0.0 0.00 0.00 0.00 89 1008.5
20260505152202 55 225 4.3 0.0 0.00 0.00 0.00 89 1008.6
20260505152101 55 225 3.5 0.0 0.00 0.00 0.00 89 1008.6
20260505152002 55 225 3.5 0.0 0.00 0.00 0.00 89 1008.6
20260505151901 55 225 3.5 0.0 0.00 0.00 0.00 89 1008.5
20260505151802 55 225 3.5 0.0 0.00 0.00 0.00 89 1008.5
20260505151702 55 225 3.5 0.0 0.00 0.00 0.00 89 1008.6
20260505151602 55 222 5.2 0.0 0.00 0.00 0.00 89 1008.6
20260505151502 55 220 11.3 0.0 0.00 0.00 0.00 89 1008.6
20260505151402 55 217 4.3 0.0 0.00 0.00 0.00 89 1008.6
20260505151302 55 222 5.2 0.0 0.00 0.00 0.00 89 1008.6
20260505151201 55 222 5.2 0.0 0.00 0.00 0.00 89 1008.6
20260505151102 55 222 5.2 0.0 0.00 0.00 0.00 89 1008.6
20260505151001 55 222 5.2 0.0 0.00 0.00 0.00 89 1008.6
20260505150902 55 225 6.1 0.0 0.00 0.00 0.00 89 1008.6
20260505150801 55 225 6.1 0.0 0.00 0.00 0.00 89 1008.6
20260505150702 55 225 6.1 0.0 0.00 0.00 0.00 89 1008.6
20260505150602 55 215 5.2 0.0 0.00 0.00 0.00 89 1008.7
20260505150502 55 215 5.2 0.0 0.00 0.00 0.00 89 1008.7
20260505150402 55 215 5.2 0.0 0.00 0.00 0.00 89 1008.8
20260505150301 55 230 2.6 0.0 0.00 0.00 0.00 88 1008.8
20260505150202 55 230 2.6 0.0 0.00 0.00 0.00 88 1008.7
20260505140601 55 220 2.6 0.0 0.00 0.00 0.00 86 1009.2
20260505140502 55 220 2.6 0.0 0.00 0.00 0.00 86 1009.2
20260505140401 55 220 2.6 0.0 0.00 0.00 0.00 86 1009.2
20260505140302 55 220 2.6 0.0 0.00 0.00 0.00 86 1009.2
20260505140201 55 220 2.6 0.0 0.00 0.00 0.00 86 1009.2
20260505130301 58 220 3.5 0.0 0.00 0.00 0.00 80 1009.5
20260505130202 58 220 3.5 0.0 0.00 0.00 0.00 80 1009.4
20260505125002 59 215 6.1 0.0 0.00 0.00 0.00 80 1009.5
20260505124901 59 205 3.5 0.0 0.00 0.00 0.00 80 1009.5
20260505124802 59 205 3.5 0.0 0.00 0.00 0.00 80 1009.5
20260505124701 59 205 3.5 0.0 0.00 0.00 0.00 80 1009.5
20260505124602 59 220 6.1 0.0 0.00 0.00 0.00 79 1009.5
20260505124501 59 220 6.1 0.0 0.00 0.00 0.00 79 1009.5
20260505124402 59 227 4.3 0.0 0.00 0.00 0.00 79 1009.5
20260505124302 59 227 4.3 0.0 0.00 0.00 0.00 79 1009.5
20260505124201 59 227 4.3 0.0 0.00 0.00 0.00 79 1009.5
20260505124102 59 165 3.5 0.0 0.00 0.00 0.00 79 1009.6
20260505124001 59 165 3.5 0.0 0.00 0.00 0.00 79 1009.6
20260505123902 60 152 4.3 0.0 0.00 0.00 0.00 78 1009.5
20260505123801 60 152 4.3 0.0 0.00 0.00 0.00 78 1009.6
20260505123702 60 152 4.3 0.0 0.00 0.00 0.00 78 1009.6
20260505123602 60 130 3.5 0.0 0.00 0.00 0.00 77 1009.6
20260505123501 60 130 3.5 0.0 0.00 0.00 0.00 77 1009.6
20260505123402 61 140 5.2 0.0 0.00 0.00 0.00 76 1009.6
20260505123301 61 140 5.2 0.0 0.00 0.00 0.00 76 1009.6
20260505123202 61 140 5.2 0.0 0.00 0.00 0.00 76 1009.6
20260505123101 61 122 5.2 0.0 0.00 0.00 0.00 72 1009.6
20260505123002 61 122 5.2 0.0 0.00 0.00 0.00 72 1009.5
20260505122902 61 122 5.2 0.0 0.00 0.00 0.00 72 1009.5
20260505122802 61 85 0.0 0.0 0.00 0.00 0.00 72 1009.5
20260505122702 61 85 0.0 0.0 0.00 0.00 0.00 72 1009.6
20260505122601 62 52 0.0 0.0 0.00 0.00 0.00 72 1009.6
20260505122502 62 52 0.0 0.0 0.00 0.00 0.00 72 1009.5
20260505122401 62 10 0.0 0.0 0.00 0.00 0.00 71 1009.6
20260505122305 62 10 0.0 0.0 0.00 0.00 0.00 71 1009.6
20260505122201 62 10 0.0 0.0 0.00 0.00 0.00 71 1009.6
20260505122102 62 145 0.0 0.0 0.00 0.00 0.00 72 1009.6
20260505122002 62 145 0.0 0.0 0.00 0.00 0.00 72 1009.6
20260505121901 62 145 0.0 0.0 0.00 0.00 0.00 72 1009.6
20260505121802 62 145 0.0 0.0 0.00 0.00 0.00 72 1009.6
20260505121701 62 145 0.0 0.0 0.00 0.00 0.00 72 1009.6
20260505121602 62 145 0.0 0.0 0.00 0.00 0.00 72 1009.6
20260505121501 62 195 0.0 0.0 0.00 0.00 0.00 71 1009.6
20260505121402 62 195 0.0 0.0 0.00 0.00 0.00 71 1009.6
20260505121301 62 212 0.0 0.0 0.00 0.00 0.00 71 1009.6
20260505121202 62 212 0.0 0.0 0.00 0.00 0.00 71 1009.6
20260505121102 62 75 0.0 0.0 0.00 0.00 0.00 69 1009.6
20260505121002 62 75 0.0 0.0 0.00 0.00 0.00 69 1009.6
20260505120901 62 75 0.0 0.0 0.00 0.00 0.00 69 1009.6
20260505120802 62 75 0.0 0.0 0.00 0.00 0.00 69 1009.6
20260505120702 62 75 0.0 0.0 0.00 0.00 0.00 69 1009.6
20260505120602 62 75 0.0 0.0 0.00 0.00 0.00 69 1009.6
20260505120502 62 217 0.0 0.0 0.00 0.00 0.00 70 1009.6
20260505120401 62 217 0.0 0.0 0.00 0.00 0.00 70 1009.6
20260505120302 62 225 0.0 0.0 0.00 0.00 0.00 70 1009.6
20260505120201 62 225 0.0 0.0 0.00 0.00 0.00 70 1009.6
20260505120001 62 265 2.6 0.0 0.00 0.00 0.00 70 1009.6
20260505115902 62 265 2.6 0.0 0.00 0.00 0.00 70 1009.6
20260505115802 62 20 0.0 0.0 0.00 0.00 0.00 70 1009.7
20260505115702 62 20 0.0 0.0 0.00 0.00 0.00 70 1009.6
20260505115602 62 20 0.0 0.0 0.00 0.00 0.00 70 1009.6
20260505115501 62 20 0.0 0.0 0.00 0.00 0.00 70 1009.7
20260505115402 62 20 0.0 0.0 0.00 0.00 0.00 70 1009.7
20260505115304 62 12 0.0 0.0 0.00 0.00 0.00 70 1009.6
20260505115202 62 12 0.0 0.0 0.00 0.00 0.00 70 1009.7
20260505115102 62 12 0.0 0.0 0.00 0.00 0.00 70 1009.6
20260505115002 63 330 3.5 0.0 0.00 0.00 0.00 70 1009.7
20260505114902 63 330 3.5 0.0 0.00 0.00 0.00 70 1009.7
20260505114801 63 310 1.7 0.0 0.00 0.00 0.00 69 1009.7
20260505114702 63 310 1.7 0.0 0.00 0.00 0.00 69 1009.7
20260505114601 63 310 1.7 0.0 0.00 0.00 0.00 69 1009.7
20260505114502 64 260 2.6 0.0 0.00 0.00 0.00 69 1009.7
20260505114401 64 260 2.6 0.0 0.00 0.00 0.00 69 1009.7
20260505114302 64 260 2.6 0.0 0.00 0.00 0.00 69 1009.7
20260505114202 63 225 2.6 0.0 0.00 0.00 0.00 69 1009.7
20260505114102 63 225 2.6 0.0 0.00 0.00 0.00 69 1009.8
20260505114002 63 90 0.0 0.0 0.00 0.00 0.00 68 1009.8
20260505113901 63 90 0.0 0.0 0.00 0.00 0.00 68 1009.7
20260505113802 63 90 0.0 0.0 0.00 0.00 0.00 68 1009.7
20260505113701 63 90 0.0 0.0 0.00 0.00 0.00 68 1009.8
20260505113602 63 90 0.0 0.0 0.00 0.00 0.00 68 1009.8
20260505113502 63 105 0.0 0.0 0.00 0.00 0.00 69 1009.8
20260505113402 63 105 0.0 0.0 0.00 0.00 0.00 69 1009.8
20260505113302 63 105 0.0 0.0 0.00 0.00 0.00 69 1009.8
20260505113201 63 115 0.0 0.0 0.00 0.00 0.00 72 1009.8
20260505113102 63 115 0.0 0.0 0.00 0.00 0.00 72 1009.8
20260505113002 63 115 0.0 0.0 0.00 0.00 0.00 72 1009.8
20260505112902 63 115 0.0 0.0 0.00 0.00 0.00 72 1009.8
20260505112801 63 115 0.0 0.0 0.00 0.00 0.00 72 1009.8
20260505112702 63 15 3.5 0.0 0.00 0.00 0.00 72 1009.9
20260505112602 63 15 3.5 0.0 0.00 0.00 0.00 72 1009.8
20260505112501 63 15 3.5 0.0 0.00 0.00 0.00 72 1009.8
20260505112402 63 15 3.5 0.0 0.00 0.00 0.00 72 1009.8
20260505112301 63 15 3.5 0.0 0.00 0.00 0.00 72 1009.8
20260505112202 63 255 0.0 0.0 0.00 0.00 0.00 73 1009.8
20260505112101 63 255 0.0 0.0 0.00 0.00 0.00 73 1009.9
20260505112002 63 255 0.0 0.0 0.00 0.00 0.00 73 1009.9
20260505111901 63 235 0.0 0.0 0.00 0.00 0.00 72 1009.9
20260505111801 63 235 0.0 0.0 0.00 0.00 0.00 72 1009.9
20260505111702 63 255 0.0 0.0 0.00 0.00 0.00 72 1009.9
20260505111601 63 255 0.0 0.0 0.00 0.00 0.00 72 1009.9
20260505111502 62 250 2.6 0.0 0.00 0.00 0.00 75 1009.9
20260505111401 62 250 2.6 0.0 0.00 0.00 0.00 75 1009.9
20260505111302 62 250 2.6 0.0 0.00 0.00 0.00 75 1010.0
20260505111202 62 230 2.6 0.0 0.00 0.00 0.00 75 1009.9
20260505111102 62 230 2.6 0.0 0.00 0.00 0.00 75 1010.0
20260505111002 62 230 2.6 0.0 0.00 0.00 0.00 75 1010.0
20260505110902 61 187 0.0 0.0 0.00 0.00 0.00 73 1010.0
20260505110802 61 187 0.0 0.0 0.00 0.00 0.00 73 1010.1
20260505110701 61 160 0.0 0.0 0.00 0.00 0.00 74 1010.1
20260505110602 61 160 0.0 0.0 0.00 0.00 0.00 74 1010.1
20260505110501 61 65 4.3 0.0 0.00 0.00 0.00 77 1010.1
20260505110402 61 65 4.3 0.0 0.00 0.00 0.00 77 1010.1
20260505110302 61 65 4.3 0.0 0.00 0.00 0.00 77 1010.1
20260505110202 61 65 4.3 0.0 0.00 0.00 0.00 77 1010.1
20260505102201 58 147 0.0 0.0 0.00 0.00 0.00 78 1010.5
20260505102102 58 147 0.0 0.0 0.00 0.00 0.00 78 1010.5
20260505102001 58 147 0.0 0.0 0.00 0.00 0.00 78 1010.5
20260505101902 58 120 0.0 0.0 0.00 0.00 0.00 78 1010.5
20260505101801 58 120 0.0 0.0 0.00 0.00 0.00 78 1010.4
20260505101702 58 82 0.0 0.0 0.00 0.00 0.00 78 1010.4
20260505101602 58 82 0.0 0.0 0.00 0.00 0.00 78 1010.4
20260505101501 58 82 0.0 0.0 0.00 0.00 0.00 78 1010.5
20260505101402 58 80 3.5 0.0 0.00 0.00 0.00 77 1010.5
20260505101301 58 80 3.5 0.0 0.00 0.00 0.00 77 1010.5
20260505101202 58 80 3.5 0.0 0.00 0.00 0.00 77 1010.5
20260505101102 58 72 4.3 0.0 0.00 0.00 0.00 77 1010.5
20260505101001 58 72 4.3 0.0 0.00 0.00 0.00 77 1010.5
20260505100902 59 85 0.0 0.0 0.00 0.00 0.00 77 1010.5
20260505100801 59 85 0.0 0.0 0.00 0.00 0.00 77 1010.5
20260505100702 59 85 0.0 0.0 0.00 0.00 0.00 77 1010.5
20260505100601 59 95 0.0 0.0 0.00 0.00 0.00 78 1010.5
20260505100502 59 95 0.0 0.0 0.00 0.00 0.00 78 1010.5
20260505100402 59 95 0.0 0.0 0.00 0.00 0.00 78 1010.5
20260505100301 59 147 0.0 0.0 0.00 0.00 0.00 78 1010.4
20260505100202 59 147 0.0 0.0 0.00 0.00 0.00 78 1010.5
20260505100101 59 147 0.0 0.0 0.00 0.00 0.00 78 1010.5
20260505100002 59 107 0.0 0.0 0.00 0.00 0.00 76 1010.5
20260505095901 59 107 0.0 0.0 0.00 0.00 0.00 76 1010.5
20260505095802 59 107 0.0 0.0 0.00 0.00 0.00 76 1010.4
20260505095702 59 107 0.0 0.0 0.00 0.00 0.00 76 1010.5
20260505095602 59 107 0.0 0.0 0.00 0.00 0.00 76 1010.5
20260505095502 59 107 0.0 0.0 0.00 0.00 0.00 76 1010.5
20260505095401 59 107 0.0 0.0 0.00 0.00 0.00 76 1010.5
20260505095304 59 90 0.0 0.0 0.00 0.00 0.00 77 1010.4
20260505095201 59 90 0.0 0.0 0.00 0.00 0.00 77 1010.4
20260505095102 59 85 0.0 0.0 0.00 0.00 0.00 76 1010.5
20260505095001 59 85 0.0 0.0 0.00 0.00 0.00 76 1010.4
20260505094901 59 107 0.0 0.0 0.00 0.00 0.00 77 1010.4
20260505094802 59 107 0.0 0.0 0.00 0.00 0.00 77 1010.4
20260505094701 59 107 0.0 0.0 0.00 0.00 0.00 77 1010.4
20260505094602 59 140 0.0 0.0 0.00 0.00 0.00 76 1010.4
20260505094501 59 140 0.0 0.0 0.00 0.00 0.00 76 1010.5
20260505094402 59 190 0.0 0.0 0.00 0.00 0.00 76 1010.4
20260505094302 59 190 0.0 0.0 0.00 0.00 0.00 76 1010.5
20260505094201 59 190 0.0 0.0 0.00 0.00 0.00 76 1010.5
20260505094102 59 12 0.0 0.0 0.00 0.00 0.00 76 1010.5
20260505094001 59 12 0.0 0.0 0.00 0.00 0.00 76 1010.5
20260505093902 59 12 0.0 0.0 0.00 0.00 0.00 76 1010.5
20260505093801 59 12 0.0 0.0 0.00 0.00 0.00 76 1010.5
20260505093702 59 12 0.0 0.0 0.00 0.00 0.00 76 1010.5
20260505093501 59 325 0.0 0.0 0.00 0.00 0.00 77 1010.5
20260505093402 59 250 0.0 0.0 0.00 0.00 0.00 78 1010.5
20260505093301 59 250 0.0 0.0 0.00 0.00 0.00 78 1010.5
20260505093202 59 250 0.0 0.0 0.00 0.00 0.00 78 1010.5
20260505093101 58 175 0.0 0.0 0.00 0.00 0.00 78 1010.5
20260505093002 58 175 0.0 0.0 0.00 0.00 0.00 78 1010.5
20260505092902 58 175 0.0 0.0 0.00 0.00 0.00 78 1010.5
20260505092802 58 217 0.0 0.0 0.00 0.00 0.00 77 1010.5
20260505092702 58 217 0.0 0.0 0.00 0.00 0.00 77 1010.5
20260505092601 58 217 0.0 0.0 0.00 0.00 0.00 78 1010.5
20260505092502 58 217 0.0 0.0 0.00 0.00 0.00 78 1010.5
20260505092401 58 217 0.0 0.0 0.00 0.00 0.00 78 1010.5
20260505092304 58 217 0.0 0.0 0.00 0.00 0.00 78 1010.5
20260505092201 58 217 0.0 0.0 0.00 0.00 0.00 78 1010.5
20260505092102 58 210 0.0 0.0 0.00 0.00 0.00 78 1010.5
20260505092002 58 210 0.0 0.0 0.00 0.00 0.00 78 1010.5
20260505091901 58 247 0.0 0.0 0.00 0.00 0.00 78 1010.5
20260505091802 58 247 0.0 0.0 0.00 0.00 0.00 78 1010.5
20260505091701 58 247 0.0 0.0 0.00 0.00 0.00 78 1010.5
20260505091602 58 247 0.0 0.0 0.00 0.00 0.00 78 1010.5
20260505091502 58 247 0.0 0.0 0.00 0.00 0.00 78 1010.5
20260505091402 58 247 0.0 0.0 0.00 0.00 0.00 78 1010.5
20260505091301 58 247 0.0 0.0 0.00 0.00 0.00 78 1010.5
20260505091202 58 217 0.0 0.0 0.00 0.00 0.00 78 1010.5
20260505091101 58 217 0.0 0.0 0.00 0.00 0.00 78 1010.5
20260505091002 58 217 0.0 0.0 0.00 0.00 0.00 78 1010.5
20260505090902 58 250 0.0 0.0 0.00 0.00 0.00 79 1010.5
20260505090802 58 250 0.0 0.0 0.00 0.00 0.00 79 1010.5
20260505090701 58 250 0.0 0.0 0.00 0.00 0.00 79 1010.5
20260505090602 58 250 0.0 0.0 0.00 0.00 0.00 79 1010.5
20260505090502 58 250 0.0 0.0 0.00 0.00 0.00 79 1010.5
20260505090402 58 250 0.0 0.0 0.00 0.00 0.00 79 1010.5
20260505090302 58 250 0.0 0.0 0.00 0.00 0.00 79 1010.5
20260505090201 58 225 0.0 0.0 0.00 0.00 0.00 80 1010.5
20260505090001 58 225 0.0 0.0 0.00 0.00 0.00 80 1010.5
20260505085902 58 217 0.0 0.0 0.00 0.00 0.00 79 1010.6
20260505085801 58 217 0.0 0.0 0.00 0.00 0.00 79 1010.6
20260505085703 58 217 0.0 0.0 0.00 0.00 0.00 79 1010.6
20260505085601 58 220 0.0 0.0 0.00 0.00 0.00 80 1010.6
20260505085502 58 220 0.0 0.0 0.00 0.00 0.00 80 1010.6
20260505085401 58 220 0.0 0.0 0.00 0.00 0.00 80 1010.6
20260505085304 58 220 0.0 0.0 0.00 0.00 0.00 80 1010.6
20260505085201 58 220 0.0 0.0 0.00 0.00 0.00 80 1010.6
20260505085102 58 220 0.0 0.0 0.00 0.00 0.00 80 1010.6
20260505085002 58 220 0.0 0.0 0.00 0.00 0.00 80 1010.6
20260505084901 58 220 0.0 0.0 0.00 0.00 0.00 80 1010.6
20260505084802 58 220 0.0 0.0 0.00 0.00 0.00 80 1010.6
20260505084701 58 220 0.0 0.0 0.00 0.00 0.00 80 1010.6
20260505084602 58 220 0.0 0.0 0.00 0.00 0.00 80 1010.7
20260505084501 58 220 0.0 0.0 0.00 0.00 0.00 80 1010.6
20260505084402 58 220 0.0 0.0 0.00 0.00 0.00 80 1010.7
20260505084302 58 220 0.0 0.0 0.00 0.00 0.00 81 1010.6
20260505084202 58 220 0.0 0.0 0.00 0.00 0.00 81 1010.6
20260505084102 57 217 0.0 0.0 0.00 0.00 0.00 81 1010.7
20260505084003 57 217 0.0 0.0 0.00 0.00 0.00 81 1010.7
20260505083902 57 225 0.0 0.0 0.00 0.00 0.00 82 1010.7
20260505083802 57 225 0.0 0.0 0.00 0.00 0.00 82 1010.7
20260505083701 57 225 0.0 0.0 0.00 0.00 0.00 82 1010.7
20260505083602 57 225 0.0 0.0 0.00 0.00 0.00 82 1010.7
20260505083501 57 225 0.0 0.0 0.00 0.00 0.00 82 1010.7
20260505083402 57 225 0.0 0.0 0.00 0.00 0.00 82 1010.7
20260505083301 57 105 0.0 0.0 0.00 0.00 0.00 82 1010.7
20260505083202 57 105 0.0 0.0 0.00 0.00 0.00 82 1010.7
20260505083101 57 105 0.0 0.0 0.00 0.00 0.00 82 1010.7
20260505083002 57 27 0.0 0.0 0.00 0.00 0.00 82 1010.7
20260505082901 57 27 0.0 0.0 0.00 0.00 0.00 82 1010.7
20260505082502 56 122 0.0 0.0 0.00 0.00 0.00 84 1010.7
20260505082402 56 122 0.0 0.0 0.00 0.00 0.00 84 1010.7
20260505082304 56 235 0.0 0.0 0.00 0.00 0.00 85 1010.7
20260505082202 56 235 0.0 0.0 0.00 0.00 0.00 85 1010.7
20260505082101 56 235 0.0 0.0 0.00 0.00 0.00 85 1010.7
20260505082002 56 210 0.0 0.0 0.00 0.00 0.00 85 1010.7
20260505081902 56 210 0.0 0.0 0.00 0.00 0.00 85 1010.7
20260505081802 56 295 0.0 0.0 0.00 0.00 0.00 85 1010.7
20260505081702 56 295 0.0 0.0 0.00 0.00 0.00 85 1010.7
20260505081601 56 295 0.0 0.0 0.00 0.00 0.00 85 1010.6
20260505081502 55 255 0.0 0.0 0.00 0.00 0.00 85 1010.6
20260505081401 55 255 0.0 0.0 0.00 0.00 0.00 85 1010.6
20260505081302 55 180 0.0 0.0 0.00 0.00 0.00 86 1010.6
20260505081201 55 180 0.0 0.0 0.00 0.00 0.00 86 1010.6
20260505081102 55 180 0.0 0.0 0.00 0.00 0.00 86 1010.6
20260505081002 55 180 0.0 0.0 0.00 0.00 0.00 86 1010.7
20260505080902 55 180 0.0 0.0 0.00 0.00 0.00 86 1010.6
20260505080802 55 232 0.0 0.0 0.00 0.00 0.00 87 1010.6
20260505080701 55 232 0.0 0.0 0.00 0.00 0.00 87 1010.6
20260505080602 55 232 0.0 0.0 0.00 0.00 0.00 87 1010.6
20260505080501 55 232 0.0 0.0 0.00 0.00 0.00 87 1010.6
20260505080402 55 232 0.0 0.0 0.00 0.00 0.00 87 1010.6
20260505080302 55 227 0.0 0.0 0.00 0.00 0.00 87 1010.7
20260505080202 55 227 0.0 0.0 0.00 0.00 0.00 87 1010.6
20260505080002 54 192 0.0 0.0 0.00 0.00 0.00 88 1010.6
20260505075902 54 192 0.0 0.0 0.00 0.00 0.00 88 1010.6
20260505075801 54 192 0.0 0.0 0.00 0.00 0.00 88 1010.6
20260505075702 54 192 0.0 0.0 0.00 0.00 0.00 88 1010.6
20260505075601 54 192 0.0 0.0 0.00 0.00 0.00 88 1010.7
20260505075502 54 210 0.0 0.0 0.00 0.00 0.00 90 1010.6
20260505075401 54 210 0.0 0.0 0.00 0.00 0.00 90 1010.6
20260505075304 54 210 0.0 0.0 0.00 0.00 0.00 90 1010.6
20260505075201 54 210 0.0 0.0 0.00 0.00 0.00 90 1010.7
20260505075102 54 210 0.0 0.0 0.00 0.00 0.00 90 1010.6
20260505075001 54 212 0.0 0.0 0.00 0.00 0.00 90 1010.7
20260505074902 54 212 0.0 0.0 0.00 0.00 0.00 90 1010.7
20260505074802 54 212 0.0 0.0 0.00 0.00 0.00 90 1010.7
20260505074702 54 190 0.0 0.0 0.00 0.00 0.00 90 1010.7
20260505074602 54 190 0.0 0.0 0.00 0.00 0.00 90 1010.7
20260505074501 54 165 0.0 0.0 0.00 0.00 0.00 91 1010.7
20260505074402 54 165 0.0 0.0 0.00 0.00 0.00 91 1010.7
20260505074301 54 185 0.0 0.0 0.00 0.00 0.00 91 1010.7
20260505074202 54 185 0.0 0.0 0.00 0.00 0.00 91 1010.7
20260505074101 54 185 0.0 0.0 0.00 0.00 0.00 91 1010.8
20260505074002 54 185 0.0 0.0 0.00 0.00 0.00 91 1010.7
20260505073901 54 185 0.0 0.0 0.00 0.00 0.00 91 1010.8
20260505073802 53 200 0.0 0.0 0.00 0.00 0.00 92 1010.8
20260505073702 53 200 0.0 0.0 0.00 0.00 0.00 92 1010.7
20260505073601 53 200 0.0 0.0 0.00 0.00 0.00 92 1010.7
20260505073502 53 200 0.0 0.0 0.00 0.00 0.00 92 1010.7
20260505073401 53 200 0.0 0.0 0.00 0.00 0.00 92 1010.7
20260505073302 53 200 0.0 0.0 0.00 0.00 0.00 92 1010.7
20260505073201 53 200 0.0 0.0 0.00 0.00 0.00 92 1010.7
20260505073102 53 200 0.0 0.0 0.00 0.00 0.00 92 1010.7
20260505073002 53 200 0.0 0.0 0.00 0.00 0.00 92 1010.8
20260505072902 53 200 0.0 0.0 0.00 0.00 0.00 92 1010.7
20260505072802 53 200 0.0 0.0 0.00 0.00 0.00 92 1010.8
20260505072701 53 200 0.0 0.0 0.00 0.00 0.00 92 1010.8
20260505072602 53 200 0.0 0.0 0.00 0.00 0.00 92 1010.7
20260505072501 53 200 0.0 0.0 0.00 0.00 0.00 92 1010.7
20260505072402 53 225 0.0 0.0 0.00 0.00 0.00 92 1010.7
20260505072302 53 225 0.0 0.0 0.00 0.00 0.00 92 1010.7
20260505072202 53 225 0.0 0.0 0.00 0.00 0.00 92 1010.8
20260505072102 53 225 0.0 0.0 0.00 0.00 0.00 92 1010.8
20260505072001 53 225 0.0 0.0 0.00 0.00 0.00 92 1010.7
20260505071902 53 225 0.0 0.0 0.00 0.00 0.00 92 1010.7
20260505071801 53 225 0.0 0.0 0.00 0.00 0.00 92 1010.7
20260505071702 53 220 0.0 0.0 0.00 0.00 0.00 92 1010.7
20260505071601 53 220 0.0 0.0 0.00 0.00 0.00 92 1010.7
20260505071502 53 220 0.0 0.0 0.00 0.00 0.00 92 1010.7
20260505071402 53 220 0.0 0.0 0.00 0.00 0.00 92 1010.7
20260505071302 53 220 0.0 0.0 0.00 0.00 0.00 92 1010.7
20260505071202 53 230 0.0 0.0 0.00 0.00 0.00 92 1010.7
20260505071101 53 230 0.0 0.0 0.00 0.00 0.00 92 1010.7
20260505071002 53 230 0.0 0.0 0.00 0.00 0.00 92 1010.8
20260505070901 53 230 0.0 0.0 0.00 0.00 0.00 92 1010.8
20260505070802 53 230 0.0 0.0 0.00 0.00 0.00 92 1010.8
20260505070701 53 230 0.0 0.0 0.00 0.00 0.00 92 1010.8
20260505070602 53 230 0.0 0.0 0.00 0.00 0.00 92 1010.8
20260505070501 53 230 0.0 0.0 0.00 0.00 0.00 92 1010.8
20260505070402 53 220 0.0 0.0 0.00 0.00 0.00 92 1010.8
20260505070302 53 220 0.0 0.0 0.00 0.00 0.00 92 1010.8
20260505070202 53 220 0.0 0.0 0.00 0.00 0.00 92 1010.8
20260505070001 53 207 0.0 0.0 0.00 0.00 0.00 92 1010.8
20260505065902 53 207 0.0 0.0 0.00 0.00 0.00 92 1010.8
20260505065801 53 207 0.0 0.0 0.00 0.00 0.00 92 1010.8
20260505065702 53 205 0.0 0.0 0.00 0.00 0.00 92 1010.8
20260505065602 53 205 0.0 0.0 0.00 0.00 0.00 92 1010.8
20260505065501 53 205 0.0 0.0 0.00 0.00 0.00 92 1010.8
20260505065402 53 25 0.0 0.0 0.00 0.00 0.00 92 1010.7
20260505065303 53 25 0.0 0.0 0.00 0.00 0.00 92 1010.8
20260505065202 53 25 0.0 0.0 0.00 0.00 0.00 92 1010.8
20260505065101 53 25 0.0 0.0 0.00 0.00 0.00 92 1010.8
20260505065002 53 25 0.0 0.0 0.00 0.00 0.00 92 1010.8
20260505064901 53 25 0.0 0.0 0.00 0.00 0.00 92 1010.8
20260505064802 53 25 0.0 0.0 0.00 0.00 0.00 92 1010.9
20260505064702 52 25 0.0 0.0 0.00 0.00 0.00 92 1010.8
20260505064601 52 25 0.0 0.0 0.00 0.00 0.00 92 1010.8
20260505064502 52 30 0.0 0.0 0.00 0.00 0.00 92 1010.8
20260505064401 52 30 0.0 0.0 0.00 0.00 0.00 92 1010.9
20260505064302 52 30 0.0 0.0 0.00 0.00 0.00 92 1010.9
20260505064201 52 345 0.0 0.0 0.00 0.00 0.00 92 1010.9
20260505064102 52 345 0.0 0.0 0.00 0.00 0.00 92 1010.9
20260505064002 52 345 0.0 0.0 0.00 0.00 0.00 92 1010.9
20260505063902 52 345 0.0 0.0 0.00 0.00 0.00 92 1010.9
20260505063802 52 345 0.0 0.0 0.00 0.00 0.00 92 1011.0
20260505063701 52 345 0.0 0.0 0.00 0.00 0.00 92 1011.0
20260505063602 52 345 0.0 0.0 0.00 0.00 0.00 92 1011.0
20260505063501 52 345 0.0 0.0 0.00 0.00 0.00 92 1011.0
20260505063402 52 345 0.0 0.0 0.00 0.00 0.00 92 1011.0
20260505063302 52 345 0.0 0.0 0.00 0.00 0.00 92 1011.0
20260505063201 52 345 0.0 0.0 0.00 0.00 0.00 92 1011.0
20260505063102 52 345 0.0 0.0 0.00 0.00 0.00 92 1011.2
20260505063001 52 345 0.0 0.0 0.00 0.00 0.00 92 1011.2
20260505062902 52 345 0.0 0.0 0.00 0.00 0.00 92 1011.0
20260505062801 52 345 0.0 0.0 0.00 0.00 0.00 92 1011.2
20260505062702 52 345 0.0 0.0 0.00 0.00 0.00 92 1011.2
20260505062601 52 345 0.0 0.0 0.00 0.00 0.00 92 1011.0
20260505062502 52 345 0.0 0.0 0.00 0.00 0.00 92 1011.0
20260505062402 52 345 0.0 0.0 0.00 0.00 0.00 92 1011.2
20260505062301 52 345 0.0 0.0 0.00 0.00 0.00 92 1011.2
20260505062202 52 345 0.0 0.0 0.00 0.00 0.00 92 1011.2
20260505062101 52 345 0.0 0.0 0.00 0.00 0.00 92 1011.2
20260505062002 52 345 0.0 0.0 0.00 0.00 0.00 92 1011.2
20260505061602 52 345 0.0 0.0 0.00 0.00 0.00 92 1011.2
20260505061502 52 345 0.0 0.0 0.00 0.00 0.00 92 1011.0
20260505061402 52 345 0.0 0.0 0.00 0.00 0.00 92 1011.2
20260505061301 52 345 0.0 0.0 0.00 0.00 0.00 92 1011.2
20260505061202 52 357 0.0 0.0 0.00 0.00 0.00 92 1011.2
20260505061101 52 357 0.0 0.0 0.00 0.00 0.00 92 1011.2
20260505061002 52 357 0.0 0.0 0.00 0.00 0.00 92 1011.2
20260505060901 52 150 0.0 0.0 0.00 0.00 0.00 92 1011.3
20260505060802 52 150 0.0 0.0 0.00 0.00 0.00 92 1011.2
20260505060702 52 150 0.0 0.0 0.00 0.00 0.00 92 1011.2
20260505060602 52 150 0.0 0.0 0.00 0.00 0.00 92 1011.3
20260505060502 52 150 0.0 0.0 0.00 0.00 0.00 92 1011.2
20260505060401 52 150 0.0 0.0 0.00 0.00 0.00 92 1011.3
20260505060302 52 150 0.0 0.0 0.00 0.00 0.00 92 1011.3
20260505060201 51 165 0.0 0.0 0.00 0.00 0.00 92 1011.2
20260505060001 51 165 0.0 0.0 0.00 0.00 0.00 92 1011.2
20260505055902 51 165 0.0 0.0 0.00 0.00 0.00 92 1011.2
20260505055802 51 165 0.0 0.0 0.00 0.00 0.00 92 1011.2
20260505055701 51 165 0.0 0.0 0.00 0.00 0.00 92 1011.2
20260505055602 51 142 0.0 0.0 0.00 0.00 0.00 92 1011.0
20260505055501 51 142 0.0 0.0 0.00 0.00 0.00 92 1011.2
20260505055402 51 142 0.0 0.0 0.00 0.00 0.00 92 1011.2
20260505055303 51 150 0.0 0.0 0.00 0.00 0.00 92 1011.2
20260505055202 51 150 0.0 0.0 0.00 0.00 0.00 92 1011.2
20260505055101 51 175 0.0 0.0 0.00 0.00 0.00 92 1011.0
20260505055001 51 175 0.0 0.0 0.00 0.00 0.00 92 1011.2
20260505054902 51 187 0.0 0.0 0.00 0.00 0.00 92 1011.2
20260505054801 51 187 0.0 0.0 0.00 0.00 0.00 92 1011.0
20260505054702 51 187 0.0 0.0 0.00 0.00 0.00 92 1011.0
20260505054601 51 222 0.0 0.0 0.00 0.00 0.00 92 1011.0
20260505054502 51 222 0.0 0.0 0.00 0.00 0.00 92 1011.0
20260505054401 51 222 0.0 0.0 0.00 0.00 0.00 92 1010.9
20260505054302 51 232 0.0 0.0 0.00 0.00 0.00 92 1011.0
20260505054201 51 232 0.0 0.0 0.00 0.00 0.00 92 1011.0
20260505054101 51 232 0.0 0.0 0.00 0.00 0.00 92 1011.0
20260505054002 51 232 0.0 0.0 0.00 0.00 0.00 92 1011.0
20260505053901 51 222 0.0 0.0 0.00 0.00 0.00 92 1011.0
20260505053802 51 222 0.0 0.0 0.00 0.00 0.00 92 1010.9
20260505053702 51 222 0.0 0.0 0.00 0.00 0.00 92 1011.0
20260505053602 51 220 0.0 0.0 0.00 0.00 0.00 92 1011.0
20260505053502 51 220 0.0 0.0 0.00 0.00 0.00 92 1011.0
20260505053401 51 220 0.0 0.0 0.00 0.00 0.00 92 1011.0
20260505053302 51 217 0.0 0.0 0.00 0.00 0.00 92 1011.0
20260505053201 51 217 0.0 0.0 0.00 0.00 0.00 92 1011.0
20260505053102 51 217 0.0 0.0 0.00 0.00 0.00 92 1011.2
20260505053001 51 217 0.0 0.0 0.00 0.00 0.00 92 1011.0